This demonstration page uses our WeatherBlox Daily Observations layout. Learn more.

Left ArrowRight Arrow

39.92423, -83.80882

Hourly Observations for November 6, 2018

Temp ( °F °C ) Dew Point ( °F °C ) Humidity (%) Winds ( mph kmh ) Pressure ( in mb ) Visibility ( mi km ) Precip ( " mm )
12:56 am 00:56 Cloudy with Light Rain 54 12.2 53 11.7 97 97 SSE 15 24 29.67 1005 10 16.0934 0.07 1.778
1:11 am 01:11 Cloudy with Light Rain 54 12 54 12 100 100 SSE 17 28 29.68 1005 10 16.0934 0.02 0.508
1:21 am 01:21 Cloudy with Rain 54 12 54 12 100 100 SSE 14 22 29.65 1004 10 16.0934 0.03 0.762
1:37 am 01:37 Cloudy with Light Rain 55 13 54 12 94 94 SSE 17 28 29.62 1003 10 16.0934 0.04 1.016
1:56 am 01:56 Cloudy with Light Rain 55 12.8 55 12.8 100 100 SSE 17 28 29.6 1003 10 16.0934 0.06 1.524
2:14 am 02:14 Cloudy with Light Rain 55 13 55 13 100 100 SSE 18 30 29.53 1000 10 16.0934 0.01 0.254
3:15 am 03:15 Cloudy with Light Rain 55 13 55 13 100 100 SSE 20 31 29.53 1000 10 16.0934 0.01 0.254
3:27 am 03:27 Cloudy with Light Rain 55 13 55 13 100 100 S 14 22 29.59 1002 10 16.0934 0.02 0.508
3:56 am 03:56 Cloudy with Light Rain 56 13.3 56 13.3 100 100 S 10 17 29.59 1002 10 16.0934 0.04 1.016
4:36 am 04:36 Cloudy with Light Rain 57 14 55 13 94 94 SSW 15 24 29.56 1001 9 14.48406 0.01 0.254
4:56 am 04:56 Cloudy with Light Rain 57 13.9 56 13.3 96 96 SW 15 24 29.6 1002 10 16.0934 0.02 0.508
5:14 am 05:14 Cloudy 57 14 55 13 94 94 SW 20 31 29.59 1002 10 16.0934 N/A
5:23 am 05:23 Cloudy 57 14 55 13 94 94 SW 17 28 29.59 1002 10 16.0934 N/A
5:43 am 05:43 Cloudy 57 14 55 13 94 94 SW 21 33 29.59 1002 10 16.0934 0.01 0.254
5:56 am 05:56 Cloudy 57 13.9 55 12.8 93 93 SW 21 33 29.64 1004 10 16.0934 0.01 0.254
6:29 am 06:29 Partly Cloudy 55 13 54 12 94 94 SW 16 26 29.65 1004 10 16.0934 N/A
6:56 am 06:56 Mostly Clear 55 12.8 51 10.6 87 87 WSW 18 30 29.66 1005 10 16.0934 N/A
7:21 am 07:21 Mostly Cloudy 54 12 52 11 94 94 SW 18 30 29.68 1005 10 16.0934 N/A
7:56 am 07:56 Cloudy 54 12.2 49 9.4 83 83 WSW 14 22 29.72 1006 10 16.0934 N/A
8:20 am 08:20 Mostly Cloudy 54 12 46 8 77 77 WSW 18 30 29.71 1006 10 16.0934 N/A
8:56 am 08:56 Partly Cloudy 54 12.2 47 8.3 77 77 WSW 17 28 29.75 1007 10 16.0934 N/A
9:24 am 09:24 Mostly Cloudy 54 12 46 8 77 77 WSW 17 28 29.74 1007 10 16.0934 N/A
9:56 am 09:56 Cloudy 53 11.7 46 7.8 77 77 WSW 22 35 29.76 1008 10 16.0934 N/A
10:56 am 10:56 Cloudy 53 11.7 46 7.8 77 77 WSW 26 43 29.77 1008 10 16.0934 N/A
11:23 am 11:23 Cloudy 54 12 46 8 77 77 WSW 30 48 29.77 1008 10 16.0934 N/A
11:44 am 11:44 Cloudy 54 12 46 8 77 77 WSW 21 33 29.77 1008 10 16.0934 N/A
11:56 am 11:56 Mostly Cloudy 54 12.2 46 7.8 75 75 WSW 26 43 29.78 1009 10 16.0934 N/A
12:04 pm 12:04 Cloudy 54 12 46 8 77 77 SW 25 41 29.77 1008 10 16.0934 N/A
12:12 pm 12:12 Mostly Cloudy 54 12 45 7 72 72 WSW 29 46 29.77 1008 10 16.0934 N/A
12:56 pm 12:56 Cloudy 55 12.8 45 7.2 69 69 WSW 29 46 29.78 1009 10 16.0934 N/A
1:56 pm 13:56 Cloudy 55 12.8 45 7.2 69 69 WSW 24 39 29.8 1009 10 16.0934 N/A
2:56 pm 14:56 Mostly Cloudy 55 12.8 45 7.2 69 69 WSW 24 39 29.83 1010 10 16.0934 N/A
3:56 pm 15:56 Mostly Sunny 55 12.8 44 6.7 67 67 W 15 24 29.86 1011 10 16.0934 N/A
4:56 pm 16:56 Sunny 53 11.7 42 5.6 66 66 W 14 22 29.89 1012 10 16.0934 N/A
5:56 pm 17:56 Clear 51 10.6 41 5 69 69 WSW 13 20 29.91 1013 10 16.0934 N/A
6:56 pm 18:56 Clear 49 9.4 41 5 74 74 WSW 10 17 29.94 1014 10 16.0934 N/A
7:56 pm 19:56 Clear 48 8.9 40 4.4 74 74 W 9 15 29.96 1015 10 16.0934 N/A
8:56 pm 20:56 Clear 47 8.3 40 4.4 77 77 W 10 17 29.97 1015 10 16.0934 N/A
9:56 pm 21:56 Clear 46 7.8 40 4.4 79 79 WSW 9 15 30 1016 10 16.0934 N/A
10:56 pm 22:56 Clear 46 7.8 40 4.4 79 79 WSW 12 19 30.01 1016 10 16.0934 N/A
11:56 pm 23:56 Partly Cloudy 47 8.3 41 5 80 80 WSW 12 19 30.01 1016 10 16.0934 N/A

Powered by AerisWeather